DW8248 Weather Reports


Display with metric or nautical units.
time (UTC)temp
F
wind
direction
speed
MPH
gust
MPH
rain 1hr
in
rain 24hr
in
rain mn
in
humidity
%
barometer
mb
20260506203935 82 96 5.0 14.0 0.00 0.00 0.00 67 1015.8
20260506202931 82 100 7.0 13.0 0.00 0.00 0.00 69 1015.8
20260506201946 82 101 6.0 12.0 0.00 0.00 0.00 68 1015.8
20260506200932 82 101 6.0 12.0 0.00 0.00 0.00 68 1015.8
20260506195857 82 123 6.0 13.0 0.00 0.00 0.00 69 1015.8
20260506194826 82 100 7.0 13.0 0.00 0.00 0.00 67 1015.9
20260506192632 82 120 6.0 11.0 0.00 0.00 0.00 69 1016.1
20260506191621 82 109 6.0 11.0 0.00 0.00 0.00 70 1016.1
20260506190600 82 127 6.0 13.0 0.00 0.00 0.00 70 1016.3
20260506185607 81 106 7.0 13.0 0.00 0.00 0.00 71 1016.4
20260506183414 81 131 8.0 12.0 0.00 0.00 0.00 71 1016.5
20260506182426 81 105 7.0 11.0 0.00 0.00 0.00 73 1016.6
20260506181428 81 129 7.0 12.0 0.00 0.00 0.00 73 1016.8
20260506180424 81 113 7.0 12.0 0.00 0.00 0.00 74 1016.9
20260506175440 81 134 6.0 12.0 0.00 0.00 0.00 73 1017.0
20260506174459 81 87 8.0 12.0 0.00 0.00 0.00 74 1016.9
20260506173448 81 114 6.0 12.0 0.00 0.00 0.00 74 1017.0
20260506171230 81 114 6.0 11.0 0.00 0.00 0.00 75 1017.2
20260506170201 81 153 6.0 11.0 0.00 0.00 0.00 75 1017.1
20260506165204 80 89 5.0 10.0 0.00 0.00 0.00 75 1017.3
20260506164159 80 94 5.0 10.0 0.00 0.00 0.00 75 1017.3
20260506163128 80 129 6.0 10.0 0.00 0.00 0.00 75 1017.3
20260506162122 81 90 4.0 11.0 0.00 0.00 0.00 75 1017.3
20260506160003 80 140 6.0 12.0 0.00 0.00 0.00 75 1017.4
20260506153911 80 86 6.0 10.0 0.00 0.00 0.00 75 1017.5
20260506151720 80 147 6.0 10.0 0.00 0.00 0.00 75 1017.4
20260506150732 80 130 5.0 9.0 0.00 0.00 0.00 74 1017.4
20260506145732 80 116 5.0 9.0 0.00 0.00 0.00 75 1017.3
20260506144738 80 91 6.0 11.0 0.00 0.00 0.00 75 1017.3
20260506143732 79 140 5.0 12.0 0.00 0.00 0.00 76 1017.3
20260506142740 79 113 6.0 12.0 0.00 0.00 0.00 76 1017.3
20260506141734 79 132 6.0 10.0 0.00 0.00 0.00 76 1017.1
20260506140700 79 132 6.0 12.0 0.00 0.00 0.00 76 1017.2
20260506135627 79 149 6.0 12.0 0.00 0.00 0.00 76 1017.1
20260506134610 79 140 6.0 10.0 0.00 0.00 0.00 77 1017.0
20260506133610 79 173 5.0 12.0 0.00 0.00 0.00 77 1017.0
20260506132630 78 155 7.0 12.0 0.00 0.00 0.00 78 1016.9
20260506131553 78 126 6.0 11.0 0.00 0.00 0.00 79 1016.7
20260506130526 77 162 2.0 5.0 0.00 0.00 0.00 81 1016.5
20260506125524 76 164 3.0 5.0 0.00 0.00 0.00 82 1016.7
20260506124506 76 173 2.0 5.0 0.00 0.00 0.00 82 1016.6
20260506123433 76 177 0.0 0.0 0.00 0.00 0.00 82 1016.6
20260506122430 76 177 0.0 0.0 0.00 0.00 0.00 82 1016.6
20260506120243 75 177 0.0 0.0 0.00 0.00 0.00 82 1016.5
20260506115253 75 177 0.0 0.0 0.00 0.00 0.00 82 1016.4
20260506114250 75 177 0.0 0.0 0.00 0.00 0.00 82 1016.3
20260506113231 75 177 1.0 3.0 0.00 0.00 0.00 82 1016.2
20260506112157 75 200 1.0 3.0 0.00 0.00 0.00 82 1016.3
20260506111145 75 213 2.0 3.0 0.00 0.00 0.00 81 1016.3
20260506110143 75 231 2.0 3.0 0.00 0.00 0.00 81 1016.2
20260506105129 76 223 2.0 3.0 0.00 0.00 0.00 80 1016.0
20260506104052 76 172 2.0 4.0 0.00 0.00 0.00 78 1015.8
20260506103044 76 146 2.0 6.0 0.00 0.00 0.00 77 1015.6
20260506102034 76 161 3.0 6.0 0.00 0.00 0.00 77 1015.4
20260506101010 76 146 3.0 7.0 0.00 0.00 0.00 77 1015.5
20260506095951 76 130 3.0 7.0 0.00 0.00 0.00 76 1015.4
20260506094954 76 144 3.0 7.0 0.00 0.00 0.00 76 1015.5
20260506093938 76 144 3.0 7.0 0.00 0.00 0.00 77 1015.5
20260506091806 76 116 2.0 7.0 0.00 0.00 0.00 76 1015.3
20260506090730 76 136 3.0 8.0 0.00 0.00 0.00 76 1015.3
20260506085737 76 101 3.0 10.0 0.00 0.00 0.00 76 1015.2
20260506084717 76 124 3.0 10.0 0.00 0.00 0.00 76 1015.1
20260506083738 76 115 4.0 9.0 0.00 0.00 0.00 75 1015.2
20260506081613 76 132 3.0 8.0 0.00 0.00 0.00 76 1015.3
20260506080553 77 120 4.0 8.0 0.00 0.00 0.00 76 1015.2
20260506073459 77 115 3.0 8.0 0.00 0.00 0.00 74 1015.3
20260506072459 77 131 3.0 9.0 0.00 0.00 0.00 74 1015.3
20260506071439 77 134 3.0 9.0 0.00 0.00 0.00 74 1015.4
20260506070433 77 135 2.0 6.0 0.00 0.00 0.00 74 1015.6
20260506062328 77 119 3.0 9.0 0.00 0.00 0.00 74 1015.7
20260506061326 77 94 3.0 9.0 0.00 0.00 0.00 74 1015.8
20260506060347 77 101 4.0 8.0 0.00 0.00 0.00 74 1015.8
20260506051059 77 94 3.0 7.0 0.00 0.00 0.00 70 1016.1
20260506045013 77 126 4.0 10.0 0.00 0.00 0.00 70 1016.0
20260506043939 77 114 5.0 9.0 0.00 0.00 0.00 70 1016.0
20260506042908 77 104 4.0 10.0 0.00 0.00 0.00 70 1016.0
20260506040738 77 88 5.0 10.0 0.00 0.00 0.00 70 1016.2
20260506035730 77 129 4.0 10.0 0.00 0.00 0.00 70 1016.3
20260506034746 77 92 3.0 9.0 0.00 0.00 0.00 70 1016.3
20260506033714 77 111 4.0 12.0 0.00 0.00 0.00 69 1016.3
20260506032721 77 102 4.0 12.0 0.00 0.00 0.00 69 1016.4
20260506030536 77 92 4.0 9.0 0.00 0.00 0.00 70 1016.3
20260506025555 77 99 4.0 9.0 0.00 0.00 0.00 70 1016.4
20260506021115 77 104 4.0 9.0 0.00 0.00 0.00 70 1016.1
20260506020107 77 121 4.0 9.0 0.00 0.00 0.00 70 1016.1
20260506014024 77 80 4.0 11.0 0.00 0.00 0.00 69 1015.9
20260506013033 77 80 4.0 10.0 0.00 0.00 0.00 69 1015.7
20260506012028 77 103 5.0 12.0 0.00 0.00 0.00 68 1015.4
20260506011042 77 113 5.0 12.0 0.00 0.00 0.00 69 1015.2
20260506004856 77 0 4.0 10.0 0.00 0.00 0.00 67 1015.3
20260506003914 77 76 4.0 11.0 0.00 0.00 0.00 69 1015.1
20260506002841 77 99 4.0 11.0 0.00 0.00 0.00 66 1015.2
20260506001835 77 0 4.0 10.0 0.00 0.00 0.00 67 1015.2
20260506000840 77 77 4.0 10.0 0.00 0.00 0.00 67 1015.1
20260505235822 77 42 3.0 10.0 0.00 0.00 0.00 67 1015.0
20260505233621 78 81 5.0 10.0 0.00 0.00 0.00 62 1015.0
20260505232622 78 93 4.0 10.0 0.00 0.00 0.00 61 1015.0
20260505230531 78 88 4.0 9.0 0.00 0.00 0.00 63 1015.2
20260505225542 78 66 5.0 11.0 0.00 0.00 0.00 64 1015.2
20260505224554 79 53 5.0 11.0 0.00 0.00 0.00 63 1015.3
20260505223518 79 88 4.0 11.0 0.00 0.00 0.00 63 1015.4
20260505222507 79 40 5.0 12.0 0.00 0.00 0.00 64 1015.4
20260505221510 79 42 5.0 12.0 0.00 0.00 0.00 61 1015.3
20260505220516 79 46 5.0 11.0 0.00 0.00 0.00 62 1015.3
20260505215444 80 57 5.0 11.0 0.00 0.00 0.00 59 1015.2
20260505214410 79 67 6.0 11.0 0.00 0.00 0.00 60 1015.2
20260505213430 80 40 5.0 11.0 0.00 0.00 0.00 63 1015.2
20260505211330 80 61 5.0 12.0 0.00 0.00 0.00 63 1015.0
20260505210344 80 78 6.0 11.0 0.00 0.00 0.00 63 1015.0
20260505205404 80 46 6.0 12.0 0.00 0.00 0.00 63 1015.1